Overview Statistics Trail Chart Weather Telemetry Raw packets
 

This is the latest recevied weather packets stored in our database for station/object K2CAT. If no packets are shown the sender has not sent any weather packets the latest 10 day(s).

<< 40 41 42 43 44 45 46 >>
Time Temp. Humidity Pressure Rain* Wind** Luminosity Snow
1777437741 12.22° C 72% 1017.8 hPa 0 mm - 0 W/m² -
1777437438 11.67° C 74% 1017.6 hPa 0 mm - 0 W/m² -
1777437134 11.67° C 74% 1017.4 hPa 0 mm - 0 W/m² -
1777436831 11.67° C 73% 1017.5 hPa 0 mm - 0 W/m² -
1777436527 11.67° C 74% 1017.5 hPa 0 mm - 0 W/m² -
1777436224 11.67° C 74% 1017.6 hPa 0 mm - 0 W/m² -
1777435920 11.67° C 74% 1017.7 hPa 0 mm - 0 W/m² -
1777435616 11.67° C 73% 1017.6 hPa 0 mm - 0 W/m² -
1777435316 11.11° C 74% 1017.5 hPa 0 mm - 0 W/m² -
1777435011 11.11° C 74% 1017.5 hPa 0 mm - 0 W/m² -
1777434708 11.11° C 73% 1017.4 hPa 0 mm - 0 W/m² -
1777434407 11.11° C 73% 1017.5 hPa 0 mm - 0 W/m² -
1777434106 11.11° C 73% 1017.3 hPa 0 mm - 0 W/m² -
1777433802 11.11° C 72% 1017.2 hPa 0 mm - 0 W/m² -
1777433498 11.67° C 72% 1017.1 hPa 0 mm - 0 W/m² -
1777433194 11.67° C 71% 1017.2 hPa 0 mm - 0 W/m² -
1777432891 11.67° C 71% 1017.1 hPa 0 mm - 0 W/m² -
1777432590 11.67° C 70% 1017.2 hPa 0 mm - 0 W/m² -
1777432287 11.67° C 70% 1017 hPa 0 mm - 0 W/m² -
1777431986 12.22° C 68% 1016.4 hPa 0 mm - 0 W/m² -
1777431683 12.22° C 68% 1016.5 hPa 0 mm - 0 W/m² -
1777431379 12.78° C 66% 1016.5 hPa 0 mm - 0 W/m² -
1777431075 12.78° C 66% 1016.5 hPa 0 mm - 0 W/m² -
1777430771 12.78° C 65% 1016.7 hPa 0 mm - 0 W/m² -
1777430468 13.33° C 63% 1016.5 hPa 0 mm - 0 W/m² -

* Rain latest hour (hover to see other rain measurements)
** Current wind speed in m/s (hover to see current wind gust speed)